STARLINK-37194

Last updated on Sun Apr 12 2026 00:02:09 GMT+0000 (Coordinated Universal Time)

1 68397U 26063T 26101.48654227 .00162707 00000+0 83169-3 0 9990 2 68397 97.2831 242.8720 0001187 94.3825 265.7578 15.80888271 2806
UTC large
Height (km)
Speed (km/s)
/
Latitude / Longitude
Inclination (degrees)
Orbital Period (minutes)
Azimuth
Elevation
Range (km)
Doppler Factor

Next 0 passes for location: London (51.5072 / 0.1276)

Sorry there are no passes over London.
STARLINK-37194